Saturna Island,

1:32 AM PDT on May 27, 2017 (GMT -0700)
Saturna Island

Weather History for CWEZ - December, 2013

Change the Weather History Date:

Friday, December 13, 2013

  Actual Average Record
Temperature  
Mean Temperature 43 °F -  
Max Temperature 46 °F - - ()
Min Temperature 40 °F - - ()
Degree Days  
Heating Degree Days 22    
Moisture  
Dew Point 43 °F    
Average Humidity 91    
Maximum Humidity 99    
Minimum Humidity 85    
Precipitation  
Precipitation 0.08 in - - ()
Sea Level Pressure  
Sea Level Pressure 30.29 in    
Wind  
Wind Speed 5 mph ()    
Max Wind Speed 13 mph    
Max Gust Speed -    
T = Trace of Precipitation, MM = Missing Value Source: Averaged Metar Reports

Daily Weather History Graph

Daily Weather History Graph

Search for Another Location

Airport or City:

Trip Planner

Search our weather history database for the weather conditions in past years. The results will help you decide how hot, cold, wet, or windy it might be!

Date:

Astronomy

Dec. 13, 2013 Rise Set
Actual Time 7:57 AM PST 4:15 PM PST
Civil Twilight 7:20 AM PST 4:52 PM PST
Nautical Twilight 6:40 AM PST 5:33 PM PST
Astronomical Twilight 6:01 AM PST 6:11 PM PST
Moon 2:13 PM PST (12/13) 4:12 AM PST (12/13)
Length of Visible Light 9h 32m
Length of Day
8h 18m
Waxing Gibbous, 88% of the Moon is Illuminated
Dec 13
Waxing Gibbous
Dec 17
Full
Dec 25
Last Quarter
Jan 1
New
Jan 7
First Quarter

Hourly Weather History & Observations

Time (PST) Temp. Windchill Dew Point Humidity Pressure Visibility Wind Dir Wind Speed Gust Speed Precip Events Conditions
12:00 AM 42.8 °F - 40.6 °F 92% 30.12 in - South 1.2 mph - 0.02 in   Unknown
1:00 AM 42.8 °F - 41.0 °F 93% 30.13 in - WNW 2.3 mph - 0.02 in   Unknown
2:00 AM 43.0 °F - 41.2 °F 93% 30.15 in - NW 2.3 mph - 0.02 in   Unknown
3:00 AM 43.0 °F - 41.4 °F 94% 30.18 in - WSW 2.3 mph - 0.01 in   Unknown
4:00 AM 44 °F - 42 °F 89% 30.17 in - South 3.5 mph - -  
4:00 AM 43.5 °F 41.9 °F 41.9 °F 94% 30.17 in - South 3.5 mph - 0.01 in   Unknown
5:00 AM 43.5 °F - 41.9 °F 94% 30.18 in - SW 1.2 mph - N/A   Unknown
6:00 AM 43.9 °F 38.8 °F 42.3 °F 94% 30.20 in - SW 9.2 mph - N/A   Unknown
7:00 AM 43.7 °F 37.3 °F 42.1 °F 94% 30.24 in - SW 12.7 mph - N/A   Unknown
8:00 AM 43.5 °F 37.1 °F 42.1 °F 95% 30.25 in - SW 12.7 mph - N/A   Unknown
9:00 AM 44.1 °F 38.1 °F 42.4 °F 94% 30.28 in - SW 11.5 mph - N/A   Unknown
10:00 AM 45 °F - 43 °F 89% 30.30 in - SW 12.7 mph - -  
10:00 AM 44.6 °F 38.4 °F 42.8 °F 93% 30.30 in - SW 12.7 mph - N/A   Unknown
11:00 AM 44.8 °F 39.4 °F 42.6 °F 92% 30.31 in - SSW 10.4 mph - N/A   Unknown
12:00 PM 45.7 °F 42.0 °F 43.2 °F 91% 30.31 in - SSW 6.9 mph - N/A   Unknown
1:00 PM 46.0 °F 41.9 °F 43.5 °F 91% 30.33 in - SW 8.1 mph - N/A   Unknown
2:00 PM 45.7 °F 40.6 °F 43.3 °F 92% 30.35 in - SW 10.4 mph - N/A   Unknown
3:00 PM 45.9 °F 42.3 °F 43.3 °F 91% 30.36 in - South 6.9 mph - N/A   Unknown
4:00 PM 46 °F - 44 °F 89% 30.36 in - SSW 9.2 mph - -  
4:00 PM 46.0 °F 41.4 °F 41.9 °F 85% 30.36 in - SSW 9.2 mph - N/A   Unknown
5:00 PM 46.0 °F 41.0 °F 41.9 °F 85% 30.36 in - SSW 10.4 mph - N/A   Unknown
6:00 PM 45.5 °F 42.5 °F 43.3 °F 92% 30.37 in - WSW 5.8 mph - N/A   Unknown
7:00 PM 43.7 °F 42.1 °F 43.5 °F 99% 30.38 in - WSW 3.5 mph - N/A   Unknown
8:00 PM 45.3 °F 42.3 °F 43.5 °F 93% 30.39 in - WSW 5.8 mph - N/A   Unknown
9:00 PM 45.9 °F 40.4 °F 41.9 °F 86% 30.36 in - South 11.5 mph - N/A   Unknown
10:00 PM 46 °F - 44 °F 89% 30.38 in - South 5.8 mph - -  
10:00 PM 46.0 °F 43.1 °F 41.9 °F 85% 30.38 in - South 5.8 mph - N/A   Unknown
11:00 PM 45.7 °F 42.7 °F 43.5 °F 92% 30.40 in - West 5.8 mph - N/A   Unknown